Weather in Kochi

India     9°55′28″N   76°16′14″E
temp.,
°C
wind,
m/s
gust,
m/s
humid.,
%
clouds,
%
prec.,
mm/h
press.,
hPa
HPBL,
m
11 may, tue
tue1123:30+28ssw1179100 1.9 1008204
02:30+27ese239091 0.5 1007163
05:30+26ese229095 1.4 1007100
08:30+29ese227998 0.9 1009337
11:30+31sw3265100 2.3 1009894
14:30+31sw3366100 0.4 1007920
17:30+30sw3370100 0.4 1006596
20:30+28ssw347779 0.4 1008278
12 may, wed
wed1223:30+28s227998 1.4 1009239
02:30+27se1283100 0.5 1007270
05:30+26e2389100 0.9 1007158
08:30+28ese2380100 0.1 1009350
11:30+30ssw4371100 0.4 1008872
14:30+31ssw546886 0.3 10061032
17:30+29ssw4572100 1.0 1006825
20:30+28s358293 1.7 1007411
13 may, thu
thu1323:30+27se3486100 3.1 1008348
02:30+26ese3390100 0.3 1006229
05:30+25ese3491100 0.4 1006219
08:30+27ese3482100 0.0 1008365
11:30+32ssw3360100 0.1 1006959
14:30+31w4365100 0.1 1004725
17:30+29wsw4573100 0.6 1004547
20:30+27wsw578638 6.9 1007332
14 may, fri
fri1423:30+27wnw2384100 13.8 1007172
02:30+26sw338485 6.6 1005180
05:30+25ssw249275 13.1 1006194
08:30+25e2395100 13.0 1008195
11:30+27sse3485100 14.1 1007408
14:30+25s1195100 14.1 1006120
17:30+25e3595100 18.3 1006304
20:30+25se7995100 24.7 1006440
15 may, sat
sat1523:30+24se4697100 45.5 1008317
02:30+24ese6997100 18.3 1004457
05:30+24se61096100 28.7 1005576
08:30+25se71097100 20.0 1006576
11:30+26s91496100 31.8 1006962
14:30+25s5998100 35.8 1003579
17:30+25s6996100 95.8 1004589
20:30+26sw4691100 11.4 1007444